Gothenburg, NE

9:33 PM CDT on April 29, 2017 (GMT -0500)
Cozad, Nebraska | | Change Station

Elev 2487 ft 40.86 °N, 99.92 °W | Updated 3 minutes ago

Rain
Rain
41.6 °F
Feels Like 42 °F
N
3.0
Wind Variable Wind from NNE
Gusts 12.0 mph

Today
High -- | Low -- °F
--% Chance of Precip.
Yesterday
High -- | Low -- °F
Precip. -- in
Pressure 30.04 in
Visibility 10.0 miles
Clouds Scattered Clouds 3200 ft
Mostly Cloudy 3900 ft
Overcast 5000 ft
Windchill 42 °F
Dew Point 34 °F
Humidity 73%
Rainfall 0.02 in
Snow Depth Not available.
6:41 AM 8:35 PM
Waxing Crescent, 18% visible
METAR KLXN 300215Z AUTO 03017G25KT 10SM -RA SCT032 BKN039 OVC050 05/00 A3004 RMK AO2 T00530000
Pressure 30.04 in
Visibility 10.0 miles
Clouds Scattered Clouds 3200 ft
Mostly Cloudy 3900 ft
Overcast 5000 ft
Windchill 42 °F
Dew Point 34 °F
Humidity 73%
Rainfall 0.02 in
Snow Depth Not available.
6:41 AM 8:35 PM
Waxing Crescent, 18% visible
METAR KLXN 300215Z AUTO 03017G25KT 10SM -RA SCT032 BKN039 OVC050 05/00 A3004 RMK AO2 T00530000

Get Severe Weather Alerts

Thanks for signing up!

Be on the lookout for a verification email in your inbox.

You'll start receiving the daily forecast at 8 AM.

×

10-Day Weather Forecast

Almanac

Astronomy

Apr. 29, 2017 Rise Set
Actual Time
Civil Twilight
Nautical Twilight
Astronomical Twilight
Moon
Length of Visible Light
Length of Day
Tomorrow will be .
, % of the Moon is Illuminated

Today's Extremes

State Highs State Lows

Community

WunderPhotos

WunderBlog® & News

Nearby

Air Quality

  Air Quality AQ Index Pollutant
Not available.

Snow Depth

Station Depth Elevation

Earthquake Activity

City Distance Mag. Time & Date
Minimum magnitude displayed is 2.5.

Coastal Water Temperatures

Place Temperature

Stations

Nearby Weather Stations

Station Location Temp. Windchill Dew Point Humidity Wind Precip. Elev Updated Type
                   

Watches & Warnings

There are currently no watches in effect.